Chicago Executive, IL

2:05 PM CDT on September 18, 2019 (GMT -0500)
Chicago Executive

Weather History for KPWK - August, 2019

Change the Weather History Date:

Monday, August 19, 2019

  Actual Average Record
Temperature  
Mean Temperature 76 °F 72 °F  
Max Temperature 85 °F 81 °F 89 °F (2005)
Min Temperature 67 °F 63 °F 56 °F (1997)
Degree Days  
Heating Degree Days 0 0  
Month to date heating degree days 0 0  
Since 1 June heating degree days 37 56  
Since 1 July heating degree days 0 4  
Cooling Degree Days 11 7  
Month to date cooling degree days 191 154  
Year to date cooling degree days 745 619  
Since 1 June cooling degree days 712 577  
Growing Degree Days 25 (Base 50)    
Moisture  
Dew Point 67 °F    
Average Humidity 72    
Maximum Humidity 87    
Minimum Humidity 57    
Precipitation  
Precipitation 0.00 in 0.13 in 2.00 in (2007)
Month to date precipitation 1.45 2.36  
Year to date precipitation 27.00 21.18  
Sea Level Pressure  
Sea Level Pressure 30.00 in    
Wind  
Wind Speed 3 mph (NE)    
Max Wind Speed 10 mph    
Max Gust Speed 17 mph    
Visibility 10 miles    
Events      
T = Trace of Precipitation, MM = Missing Value Source: NWS Daily Summary

Daily Weather History Graph

Daily Weather History Graph

Search for Another Location

Airport or City:

Astronomy

Aug. 19, 2019 Rise Set
Actual Time 6:03 AM CDT 7:46 PM CDT
Civil Twilight 5:33 AM CDT 8:16 PM CDT
Nautical Twilight 4:57 AM CDT 8:52 PM CDT
Astronomical Twilight 4:18 AM CDT 9:30 PM CDT
Moon 10:03 PM CDT (8/19) 9:47 AM CDT (8/19)
Length of Visible Light 14h 42m
Length of Day
13h 43m
Waning Gibbous, 85% of the Moon is Illuminated
Aug 19
Waning Gibbous
Aug 23
Last Quarter
Aug 30
New
Sep 5
First Quarter
Sep 13
Full

Hourly Weather History & Observations

Time (CDT) Temp. Heat Index Dew Point Humidity Pressure Visibility Wind Dir Wind Speed Gust Speed Precip Events Conditions
12:52 AM 69.1 °F - 64.0 °F 84% 29.93 in 10.0 mi Calm Calm - N/A   Clear
1:52 AM 68.0 °F - 64.0 °F 87% 29.93 in 10.0 mi Calm Calm - N/A   Clear
2:52 AM 68.0 °F - 63.0 °F 84% 29.94 in 10.0 mi Calm Calm - N/A   Clear
3:52 AM 66.9 °F - 63.0 °F 87% 29.94 in 10.0 mi Calm Calm - N/A   Mostly Cloudy
4:52 AM 69.1 °F - 64.0 °F 84% 29.96 in 10.0 mi Calm Calm - N/A   Partly Cloudy
5:52 AM 68.0 °F - 64.0 °F 87% 29.98 in 10.0 mi Calm Calm - N/A   Mostly Cloudy
6:52 AM 70.0 °F - 64.9 °F 84% 29.99 in 10.0 mi Calm Calm - N/A   Mostly Cloudy
7:52 AM 73.0 °F - 66.0 °F 79% 30.01 in 10.0 mi NNW 3.5 mph - N/A   Overcast
8:52 AM 75.9 °F - 66.0 °F 71% 30.01 in 10.0 mi East 4.6 mph - N/A   Scattered Clouds
9:52 AM 78.1 °F - 66.0 °F 66% 30.01 in 10.0 mi NNE 6.9 mph - N/A   Overcast
10:52 AM 78.1 °F - 66.0 °F 66% 30.04 in 10.0 mi NE 8.1 mph - N/A   Overcast
11:52 AM 81.0 °F 83.3 °F 66.9 °F 62% 30.04 in 10.0 mi NNE 6.9 mph - N/A   Mostly Cloudy
12:52 PM 82.0 °F 84.9 °F 68.0 °F 62% 30.03 in 10.0 mi Calm Calm - N/A   Mostly Cloudy
1:05 PM 82.0 °F 84.9 °F 68.0 °F 62% 30.04 in 10.0 mi ENE 5.8 mph - N/A   Mostly Cloudy
1:14 PM 82.0 °F 84.9 °F 68.0 °F 62% 30.04 in 10.0 mi NE 8.1 mph - N/A   Overcast
1:52 PM 82.0 °F 84.9 °F 68.0 °F 62% 30.02 in 10.0 mi NE 5.8 mph - N/A   Mostly Cloudy
2:10 PM 82.9 °F 85.8 °F 68.0 °F 60% 30.03 in 10.0 mi North - - N/A   Scattered Clouds
2:52 PM 84.9 °F 88.2 °F 68.0 °F 57% 30.01 in 10.0 mi ENE 6.9 mph - N/A   Scattered Clouds
3:52 PM 82.9 °F 85.8 °F 68.0 °F 60% 30.00 in 10.0 mi ENE 10.4 mph - N/A   Clear
4:52 PM 84.0 °F 87.0 °F 68.0 °F 58% 30.00 in 10.0 mi NE 5.8 mph - N/A   Clear
5:52 PM 82.0 °F 84.9 °F 68.0 °F 62% 29.99 in 10.0 mi ENE 8.1 mph - N/A   Clear
6:52 PM 80.1 °F 82.3 °F 66.9 °F 64% 29.99 in 10.0 mi ENE 5.8 mph - N/A   Clear
7:52 PM 78.1 °F - 68.0 °F 71% 30.00 in 10.0 mi Calm Calm - N/A   Mostly Cloudy
8:52 PM 77.0 °F - 69.1 °F 76% 30.01 in 10.0 mi Calm Calm - N/A   Clear
9:52 PM 75.9 °F - 70.0 °F 82% 30.01 in 10.0 mi Calm Calm - N/A   Mostly Cloudy
10:52 PM 75.9 °F - 71.1 °F 85% 30.02 in 10.0 mi Calm Calm - N/A   Overcast
11:52 PM 75.0 °F - 70.0 °F 84% 30.01 in 10.0 mi Calm Calm - N/A   Partly Cloudy